Regional Weather Roundup
Issued by NWS

Home | Current Version | Previous Version | Graphics & Text | Print | Product List | Glossary On
Versions: 1 2 3 4 5 6 7 8 9 10 11 12 13 14 15 16 17 18 19 20 21 22 23 24 25 26 27 28 29 30 31 32 33 34 35 36 37 38 39 40 41 42 43 44 45 46 47 48 49 50
000
ASUS43 KOAX 221110
RWRNE

WEATHER ROUNDUP FOR NEBRASKA
NATIONAL WEATHER SERVICE OMAHA NE
600 AM CDT SAT JUL 22 2017

NOTES: SATELLITE DATA IS BEING USED TO AUGMENT CLOUD COVER ABOVE
       12000 FEET.
       "FAIR" INDICATES FEW OR NO CLOUDS BELOW 12,000 FEET WITH NO
       SIGNIFICANT WEATHER AND/OR OBSTRUCTIONS TO VISIBILITY.


NEZ001>004-019>022-054>056-221200-
NEBRASKA PANHANDLE

CITY           SKY/WX    TMP DP  RH WIND       PRES   REMARKS
SCOTTSBLUFF    PTCLDY    65  55  70 MISG      30.05F
ALLIANCE       CLOUDY    64  56  75 NW6       30.03F
CHADRON        CLOUDY    60  53  77 N9        30.02R
GORDON         FAIR      63  59  87 CALM      30.04F
KIMBALL        CLEAR     63  57  82 W10       30.10S
SIDNEY         CLOUDY    67  54  63 NW8       30.09R
$$

NEZ057>060-069>072-079>082-221200-
SOUTHWEST NEBRASKA

CITY           SKY/WX    TMP DP  RH WIND       PRES   REMARKS
NORTH PLATTE   CLEAR     75  54  47 CALM      29.95R
IMPERIAL       CLOUDY    69  58  67 NE10      29.96R
LEXINGTON      CLEAR     74  62  64 N6        29.91R
MCCOOK         PTCLDY    74  57  55 NW8       29.90R
OGALLALA       CLOUDY    76  56  50 NW3       29.98S
$$

NEZ005>010-023>029-035>040-094-221200-
NORTH CENTRAL NEBRASKA

CITY           SKY/WX    TMP DP  RH WIND       PRES   REMARKS
VALENTINE      CLEAR     65  56  72 SW8       29.95R
AINSWORTH      CLEAR     67  62  82 CALM      29.94S
BROKEN BOW     CLEAR     73  63  70 CALM      29.91R
O`NEILL        CLOUDY    75  75 100 N3        29.90S FOG
ORD            CLEAR     73  64  73 NW9       29.85R
THEDFORD       CLOUDY    73  60  63 NW5       29.96F
$$

NEZ041-046>049-061>064-073>077-083>087-221200-
SOUTH CENTRAL NEBRASKA

CITY           SKY/WX    TMP DP  RH WIND       PRES   REMARKS
GRAND ISLAND   CLOUDY    74  70  87 N7        29.86S
AURORA         CLOUDY    73  69  86 N12       29.83F
HASTINGS       CLOUDY    74  68  81 NE5       29.87S
HEBRON         PTCLDY    79  63  58 CALM      29.83R
HOLDREGE       CLEAR     72  60  66 N7        29.88S
KEARNEY        MOCLDY    76  68  76 N10       29.88R
YORK           MOCLDY    72  68  88 W10       29.86R
$$

NEZ011>018-030>034-042>045-221200-
NORTHEAST NEBRASKA

CITY           SKY/WX    TMP DP  RH WIND       PRES   REMARKS
NORFOLK        CLOUDY    77  73  87 NE3       29.83R
ALBION         CLOUDY    72  68  87 N10       29.86R
BLAIR          RAIN      78  76  95 NE12      29.79S
COLUMBUS       CLOUDY    75  75 100 NE9       29.83R FOG
FREMONT        CLOUDY    77  77  99 N10       29.81S FOG
TEKAMAH        CLOUDY    77  74  90 NE9       29.78F
WAYNE          MOCLDY    75  75  99 E5        29.81F
$$

NEZ050>053-065>068-078-088>093-221200-
SOUTHEAST NEBRASKA

CITY           SKY/WX    TMP DP  RH WIND       PRES   REMARKS
LINCOLN        CLEAR     78  70  76 N10       29.80R
OMAHA EPPLEY   CLOUDY    79  75  87 N14       29.78R
BEATRICE       CLOUDY    76  64  67 CALM      29.81S
NEBRASKA CITY  CLOUDY    79  68  68 W10       29.78S
PLATTSMOUTH    PTCLDY    77  67  70 NW6       29.78R
$$

NEZ044-045-051>053-067-221200-
OMAHA AREA

CITY           SKY/WX    TMP DP  RH WIND       PRES   REMARKS
OMAHA EPPLEY   CLOUDY    79  75  87 N14       29.78R
BLAIR          RAIN      78  76  95 NE12      29.79S
FREMONT        CLOUDY    77  77  99 N10       29.81S FOG
MILLARD        CLOUDY    83  80  91 N5        29.78R HX  95
OFFUTT AFB     PTCLDY    79  73  80 N7        29.76R
PLATTSMOUTH    PTCLDY    77  67  70 NW6       29.78R
WAHOO          CLOUDY    79  77  95 N10       29.81R FOG
$$




USA.gov is the U.S. government's official web portal to all federal, state and local government web resources and services.